SCP
-0 -0 -0 -0 -0 -0 0 0 0 0 0 -0 -0 -0 -0 -0 0 0 0 0 0 0 0 0 -0 0 0 0 0 0 -0 0 0 0 -0 0 -0 0 -0 0 -0 0 0
-0 -0 -0 0 0 0 0 0 0 0 0 0 0 -0 -0 -0 0 0 0 0 0 0 0 0 0 0 0 0 0 0 0 0 -0 0 -0 -0 -0 -0 -0 -0 -0 0 -0
-0 -0 0 0 0 0 0 0 0 0 -0 0 0 0 0 -0 -0 -0 0 0 -0 0 -0 0 0 0 0 0 0 0 0 0 0 0 -0 -0 0 0 -0 -0 -0 -0 -0
0 -0 0 0 0 0 0 0 0 0 0 0 0 0 0 -0 -0 0 0 0 0 0 -0 0 -0 0 0 0 0 0 0 0 -0 -0 0 -0 -0 -0 0 -0 -0 0 -0
-0 -0 -0 0 0 0 0 0 0 0 0 0 0 0 0 0 -0 -0 -0 -0 -0 -0 0 0 -0 0 0 0 0 0 0 0 0 -0 0 0 0 0 0 0 0 0 0
-0 -0 -0 -0 0 0 0 0 0 0 -0 0 -0 -0 -0 -0 -0 -0 -0 -0 -0 0 0 0 0 0 0 0 0 0 0 0 0 -0 0 0 0 0 0 0 0 0 0
-0 -0 -0 -0 -0 0 0 0 0 -0 -0 0 -0 0 -0 -0 -0 -0 -0 -0 -0 -0 0 0 0 -0 0 0 0 0 0 0 0 0 0 0 0 0 0 0 0 0 0
-0 -0 -0 -0 -0 0 0 0 0 -0 -0 0 0 0 0 0 0 -0 -0 -0 -0 0 0 0 0 0 0 0 0 0 0 0 0 0 0 0 0 0 0 0 0 0 0
-0 -0 0 -0 0 0 0 -0 0 -0 0 0 0 0 0 0 0 0 -0 0 0 0 0 0 0 0 0 0 0 0 0 0 0 0 0 0 0 0 0 0 0 0 0
-0 -0 0 0 0 0 0 -0 0 -0 0 0 0 0 0 0 0 0 0 0 0 0 0 0 0 0 0 0 0 0 0 0 0 0 0 0 0 0 0 0 0 0 0
-0 0 -0 0 -0 -0 0 -0 -0 -0 -0 0 0 0 0 -0 0 0 0 0 0 0 0 0 0 0 0 0 1 1 1 0 0 0 0 0 0 0 0 0 0 0 0
-0 0 -0 0 -0 -0 -0 -0 -0 -0 0 0 0 0 0 0 0 0 0 0 0 0 0 1 1 1 1 1 1 1 1 0 0 0 0 0 0 0 0 0 0 1 1
0 0 0 0 0 -0 0 -0 -0 -0 0 0 0 0 0 -0 0 0 -0 0 0 1 0 1 1 2 0 0 1 0 0 0 0 0 0 0 0 0 1 1 1 1 1
-0 -0 -0 0 0 0 0 -0 -0 -0 -0 0 0 0 0 0 0 0 0 0 0 1 1 0 1 1 0 1 0 0 0 0 0 0 0 0 0 0 1 1 1 1 1
0 0 -0 0 0 0 0 -0 -0 0 0 0 0 0 0 0 0 0 0 0 1 0 0 1 1 1 0 0 0 0 0 0 0 0 0 0 0 0 0 1 1 1 1
-0 -0 0 0 0 0 0 0 0 0 -0 -0 0 0 0 -0 0 0 0 0 0 0 0 0 1 1 1 1 0 0 0 0 0 1 0 0 0 0 0 1 1 1 1
-0 -0 -0 -0 -0 0 0 0 -0 -0 -0 0 0 0 0 0 0 0 1 0 1 1 1 2 1 1 1 0 1 1 1 1 0 0 1 0 0 0 0 1 1 1 1
-0 -0 -0 -0 -0 0 0 0 0 0 0 -0 0 0 0 0 0 0 0 0 1 1 1 0 1 1 1 0 1 0 1 1 1 0 0 0 1 0 0 1 1 1 1
-0 -0 -0 -0 -0 -0 0 0 0 0 0 -0 -0 -0 0 0 -0 0 1 0 1 1 0 1 1 1 1 1 0 0 1 1 0 0 0 0 0 0 1 0 1 1 1
-0 -0 0 -0 -0 -0 0 0 0 0 0 0 0 0 -0 0 -0 0 1 1 0 1 0 1 1 1 1 1 1 -0 0 0 0 0 0 0 0 0 0 0 1 1 1
-0 -0 0 -0 -0 -0 -0 -0 -0 0 0 0 0 -0 0 0 -0 0 1 1 0 0 0 0 1 2 2 1 1 1 0 0 0 0 0 0 0 0 0 0 0 1 1
-0 -0 0 -0 -0 -0 -0 0 0 0 0 0 0 0 0 0 0 -0 0 1 0 1 1 1 1 2 1 1 1 0 0 0 0 0 0 0 0 -1 -0 -0 1 1 1
-0 -0 -0 -0 -0 -0 -0 -0 -0 0 0 0 0 0 -0 0 0 0 0 0 0 0 0 1 1 1 1 0 0 0 0 0 0 0 -0 -0 -1 0 -0 0 0 0 0
-0 -0 -0 -0 0 -0 -0 -0 0 -0 -0 -0 -0 0 0 0 0 0 0 0 0 0 0 0 0 0 0 0 0 -0 0 -0 0 -0 0 -0 -0 -0 -0 -0 -0 0 0
-0 -0 -0 -0 0 -0 -0 0 -0 -0 0 0 0 0 0 0 0 0 0 0 0 0 0 -0 0 0 0 0 -0 -0 0 -0 -0 0 -0 -0 0 -0 -0 -0 -0 0 0
0 -0 -0 -0 -0 -0 0 -0 -0 0 0 0 0 0 0 -0 0 0 0 0 0 -0 -0 0 0 0 0 0 0 -0 0 -0 0 0 0 0 0 -0 -0 -0 -0 -0 0
Wind_Speed_500mb
25 33 32 35 34 35 42 44 40 39 35 36 33 36 40 40 42 42 41 43 44 45 45 44 43 40 41 43 47 47 48 49 49 41 39 39 36 35 38 35 29 31 31
35 34 35 36 38 40 44 46 44 42 41 41 38 42 47 43 41 39 40 41 43 42 45 41 38 39 41 46 52 51 47 47 47 51 38 38 37 36 34 30 32 34 30
36 34 34 39 40 41 44 40 36 34 37 38 41 44 44 44 42 42 42 42 42 42 40 36 32 33 37 44 46 43 45 38 32 34 34 34 38 34 31 31 32 28 28
42 33 33 36 38 38 32 35 36 36 37 36 40 45 45 44 43 42 41 41 41 39 37 35 33 34 37 42 43 42 48 40 41 49 30 25 30 33 30 30 30 27 23
40 27 32 33 34 35 34 33 37 36 36 37 39 43 44 43 42 41 40 40 38 36 35 32 30 33 35 43 49 49 51 43 38 22 20 24 29 27 24 25 23 20 20
36 26 33 31 31 31 32 32 35 37 37 35 38 40 43 41 36 37 38 34 35 33 34 32 31 31 35 39 45 49 41 32 37 16 17 26 28 25 25 24 24 22 20
35 34 35 32 30 28 30 30 33 33 33 36 37 38 39 40 40 38 36 38 38 37 37 36 33 32 33 34 40 45 49 46 28 19 17 26 29 26 26 26 26 25 22
44 28 31 28 26 27 28 29 30 31 33 32 34 34 36 36 36 37 37 37 37 38 37 35 34 33 33 33 35 39 39 35 14 26 21 25 26 26 26 28 27 26 25
34 25 24 28 25 26 28 28 28 30 32 34 33 32 32 34 34 35 40 40 39 37 35 37 39 38 37 43 47 43 41 39 19 23 21 22 24 25 27 29 29 28 27
34 34 24 28 27 25 28 28 28 30 30 33 36 39 37 38 36 36 37 37 36 38 40 41 45 52 48 42 39 35 41 27 19 16 17 22 26 29 30 32 32 28 26
35 35 26 31 26 14 26 29 30 31 33 33 33 34 31 30 30 38 35 37 39 43 42 33 30 27 43 45 36 37 33 32 3 14 21 27 29 31 34 33 32 31 31
33 34 33 34 41 36 22 32 30 31 23 21 24 24 20 25 23 34 37 39 32 28 32 31 22 21 13 24 31 31 31 19 9 22 27 31 31 33 34 35 34 34 33
33 30 31 36 26 41 33 31 25 21 24 21 22 31 31 28 26 25 33 21 21 23 35 27 26 13 23 22 16 23 18 21 21 27 30 30 33 34 36 37 38 39 37
42 37 32 25 30 30 18 26 25 27 16 17 13 38 35 23 21 19 21 8 29 19 29 25 30 23 23 34 23 21 22 17 19 31 32 33 35 37 38 40 41 40 38
44 36 30 30 31 32 19 26 34 29 31 18 23 14 32 27 16 22 15 20 18 28 17 22 24 19 19 16 23 21 18 24 11 20 37 38 37 38 41 43 43 41 38
32 28 22 24 39 23 25 31 31 28 20 21 14 14 13 41 25 24 29 23 18 15 16 25 23 19 11 17 15 21 16 16 24 11 9 21 38 45 46 52 57 46 38
35 31 33 18 22 25 31 38 22 35 20 22 12 24 13 14 26 12 26 27 17 22 23 24 16 12 12 13 21 10 22 9 26 22 5 12 11 28 36 39 45 49 42
38 36 25 33 27 27 30 32 32 30 21 14 19 16 15 13 20 10 29 25 19 18 12 11 12 10 12 6 9 12 8 5 17 20 17 11 11 18 32 30 27 40 50
34 30 29 22 24 31 29 21 21 32 19 14 18 6 5 17 9 6 17 25 16 15 13 18 10 10 8 4 10 15 12 6 11 0 15 10 10 24 33 30 26 29 41
36 31 33 26 32 37 19 31 25 27 19 21 21 20 8 9 6 18 8 13 7 19 9 18 14 14 9 7 8 2 4 5 7 6 4 16 23 7 14 23 30 28 29
38 39 38 32 28 32 36 30 34 19 23 16 9 15 12 2 3 8 15 8 6 24 14 14 3 10 8 4 4 7 8 14 11 4 16 2 12 6 14 14 37 20 28
43 38 40 35 30 37 31 21 24 28 27 25 17 11 15 13 15 8 6 5 16 13 12 7 10 14 9 8 13 2 16 18 11 13 11 6 10 21 16 6 24 34 23
44 39 35 34 38 32 29 27 30 32 22 29 14 15 12 9 9 14 9 13 9 3 6 9 3 12 16 9 14 18 17 14 39 19 8 21 14 13 15 11 21 30 17
43 34 39 34 34 40 36 27 24 28 22 17 11 14 18 17 12 10 6 8 6 5 2 10 9 8 14 18 5 17 15 25 12 28 19 38 5 17 48 11 21 24 22
44 35 32 28 31 36 38 33 27 29 22 20 19 19 27 21 22 10 10 9 20 8 14 22 14 6 14 22 11 13 19 10 12 32 17 53 34 32 85 12 24 8 25
46 45 40 32 28 36 38 32 31 28 23 24 20 20 16 14 16 20 17 17 18 16 5 17 8 2 5 11 8 16 21 20 10 21 17 46 10 24 58 27 34 14 27
Wind_Direction_500mb
119 113 105 107 101 96 101 109 104 99 94 91 90 94 94 96 96 94 96 98 96 92 93 99 96 93 91 89 92 92 87 85 79 80 86 86 90 90 89 86 87 88 90
121 114 105 106 99 100 102 106 106 104 102 92 96 93 94 95 96 101 100 98 97 95 96 96 93 91 88 89 97 94 89 85 83 76 71 85 88 88 90 94 87 86 85
120 108 107 109 105 101 106 102 105 103 103 101 99 95 93 95 100 100 99 99 97 98 94 92 96 95 91 98 98 90 86 84 83 79 61 76 86 88 85 88 84 87 94
118 113 113 111 111 105 99 101 103 103 100 99 95 97 97 99 99 100 104 103 99 97 93 89 92 94 98 100 100 90 86 83 85 94 94 79 88 86 81 86 89 84 89
124 128 117 114 113 106 99 96 99 99 98 99 101 101 100 101 102 103 106 101 97 97 94 90 86 89 96 100 101 96 91 87 87 96 98 90 87 83 84 88 95 95 91
122 140 122 118 111 107 102 99 99 98 99 102 101 104 105 104 104 104 104 97 96 95 92 89 88 89 92 101 102 95 87 96 104 47 90 90 91 87 89 87 93 92 88
121 127 124 119 116 113 111 105 100 103 98 99 104 107 108 102 97 98 103 98 95 91 87 84 84 85 87 96 112 106 94 89 93 84 73 85 85 83 84 85 83 80 77
122 128 127 127 125 120 115 112 104 102 101 101 102 110 111 106 100 100 101 96 93 88 85 81 80 82 85 91 105 106 98 94 66 35 71 79 84 83 81 78 75 72 69
111 113 109 120 127 126 120 119 114 103 101 101 104 107 115 107 100 102 104 100 92 88 83 79 77 79 83 88 91 89 91 92 82 55 53 81 82 80 77 75 72 67 62
121 121 114 90 97 122 124 122 117 106 99 102 111 107 112 114 106 105 106 98 89 81 83 81 80 81 81 80 81 85 80 82 95 29 75 80 81 78 76 70 63 60 56
127 124 124 108 127 84 126 121 113 110 101 99 113 105 103 96 114 115 114 100 88 85 73 65 66 81 84 78 73 76 78 80 124 31 75 78 77 75 71 67 63 58 52
138 114 137 142 145 119 117 119 108 109 96 93 84 87 98 129 105 119 108 84 78 83 70 55 40 55 82 84 65 74 82 99 31 73 76 76 76 75 73 67 58 50 42
131 133 126 121 97 121 112 112 119 102 129 147 103 106 119 93 104 109 107 55 86 67 87 60 41 59 75 95 73 77 97 97 48 72 72 75 75 71 64 58 52 46 40
132 141 139 132 135 120 142 133 132 143 90 111 122 107 102 112 149 168 97 110 76 90 72 66 72 70 70 93 91 97 100 96 61 68 72 71 69 65 61 54 48 42 37
122 127 134 137 137 136 136 139 130 130 151 151 108 104 124 140 109 145 112 122 112 70 87 94 102 89 93 91 110 90 106 119 76 60 64 66 65 63 60 52 43 37 33
140 133 124 143 141 135 148 140 139 156 135 122 119 154 136 132 129 154 97 83 86 79 79 107 102 113 93 85 93 109 101 107 131 119 49 45 61 60 62 57 46 40 36
146 140 147 142 132 134 140 133 136 138 139 152 155 133 39 146 101 96 88 104 87 53 72 61 88 102 99 96 80 114 85 86 112 109 125 28 36 53 41 43 48 43 42
145 144 155 141 130 119 122 118 131 131 160 148 145 147 205 146 97 7 117 111 101 112 63 74 106 122 132 127 100 110 141 55 83 78 99 72 41 47 20 18 37 43 41
152 153 153 159 147 142 130 149 155 141 152 146 132 165 89 58 30 106 98 129 94 83 142 110 104 114 70 154 119 74 113 249 148 95 106 93 79 64 41 36 35 29 33
152 156 152 165 148 146 128 161 157 136 148 155 168 172 77 82 48 119 136 99 79 98 101 110 104 97 69 54 52 132 82 117 135 261 154 87 111 112 86 35 38 24 20
161 170 160 163 162 160 144 133 144 151 156 168 174 140 147 144 179 154 113 353 26 72 135 144 33 356 59 3 130 197 170 132 167 54 108 21 152 144 63 63 66 47 19
170 179 179 179 169 152 148 168 175 166 169 164 154 203 171 171 156 161 193 116 69 55 36 58 35 54 75 315 314 285 242 207 142 119 66 330 22 122 93 63 46 61 54
180 182 189 183 174 157 166 173 169 167 176 186 204 185 161 193 198 117 145 136 25 227 74 344 311 82 72 359 352 22 49 337 332 143 65 345 14 350 28 296 91 54 38
172 173 187 198 178 163 173 175 180 172 181 177 165 203 191 197 208 231 166 157 107 80 213 285 272 88 47 26 303 352 47 155 232 321 310 334 233 95 358 330 66 40 15
170 174 179 196 180 178 169 179 180 171 176 187 210 194 202 195 204 204 234 212 171 193 234 249 224 115 55 45 235 23 348 37 143 147 281 9 286 319 354 64 123 35 21
169 171 181 199 192 182 185 175 174 190 195 195 198 211 217 223 219 204 228 229 218 244 198 246 229 188 26 95 206 44 26 31 5 3 179 185 140 343 346 14 350 35 65
Wind_Speed_850mb
25 33 32 35 34 35 42 44 40 39 35 36 33 36 40 40 42 42 41 43 44 45 45 44 43 40 41 43 47 47 48 49 49 41 39 39 36 35 38 35 29 31 31
35 34 35 36 38 40 44 46 44 42 41 41 38 42 47 43 41 39 40 41 43 42 45 41 38 39 41 46 52 51 47 47 47 51 38 38 37 36 34 30 32 34 30
36 34 34 39 40 41 44 40 36 34 37 38 41 44 44 44 42 42 42 42 42 42 40 36 32 33 37 44 46 43 45 38 32 34 34 34 38 34 31 31 32 28 28
42 33 33 36 38 38 32 35 36 36 37 36 40 45 45 44 43 42 41 41 41 39 37 35 33 34 37 42 43 42 48 40 41 49 30 25 30 33 30 30 30 27 23
40 27 32 33 34 35 34 33 37 36 36 37 39 43 44 43 42 41 40 40 38 36 35 32 30 33 35 43 49 49 51 43 38 22 20 24 29 27 24 25 23 20 20
36 26 33 31 31 31 32 32 35 37 37 35 38 40 43 41 36 37 38 34 35 33 34 32 31 31 35 39 45 49 41 32 37 16 17 26 28 25 25 24 24 22 20
35 34 35 32 30 28 30 30 33 33 33 36 37 38 39 40 40 38 36 38 38 37 37 36 33 32 33 34 40 45 49 46 28 19 17 26 29 26 26 26 26 25 22
44 28 31 28 26 27 28 29 30 31 33 32 34 34 36 36 36 37 37 37 37 38 37 35 34 33 33 33 35 39 39 35 14 26 21 25 26 26 26 28 27 26 25
34 25 24 28 25 26 28 28 28 30 32 34 33 32 32 34 34 35 40 40 39 37 35 37 39 38 37 43 47 43 41 39 19 23 21 22 24 25 27 29 29 28 27
34 34 24 28 27 25 28 28 28 30 30 33 36 39 37 38 36 36 37 37 36 38 40 41 45 52 48 42 39 35 41 27 19 16 17 22 26 29 30 32 32 28 26
35 35 26 31 26 14 26 29 30 31 33 33 33 34 31 30 30 38 35 37 39 43 42 33 30 27 43 45 36 37 33 32 3 14 21 27 29 31 34 33 32 31 31
33 34 33 34 41 36 22 32 30 31 23 21 24 24 20 25 23 34 37 39 32 28 32 31 22 21 13 24 31 31 31 19 9 22 27 31 31 33 34 35 34 34 33
33 30 31 36 26 41 33 31 25 21 24 21 22 31 31 28 26 25 33 21 21 23 35 27 26 13 23 22 16 23 18 21 21 27 30 30 33 34 36 37 38 39 37
42 37 32 25 30 30 18 26 25 27 16 17 13 38 35 23 21 19 21 8 29 19 29 25 30 23 23 34 23 21 22 17 19 31 32 33 35 37 38 40 41 40 38
44 36 30 30 31 32 19 26 34 29 31 18 23 14 32 27 16 22 15 20 18 28 17 22 24 19 19 16 23 21 18 24 11 20 37 38 37 38 41 43 43 41 38
32 28 22 24 39 23 25 31 31 28 20 21 14 14 13 41 25 24 29 23 18 15 16 25 23 19 11 17 15 21 16 16 24 11 9 21 38 45 46 52 57 46 38
35 31 33 18 22 25 31 38 22 35 20 22 12 24 13 14 26 12 26 27 17 22 23 24 16 12 12 13 21 10 22 9 26 22 5 12 11 28 36 39 45 49 42
38 36 25 33 27 27 30 32 32 30 21 14 19 16 15 13 20 10 29 25 19 18 12 11 12 10 12 6 9 12 8 5 17 20 17 11 11 18 32 30 27 40 50
34 30 29 22 24 31 29 21 21 32 19 14 18 6 5 17 9 6 17 25 16 15 13 18 10 10 8 4 10 15 12 6 11 0 15 10 10 24 33 30 26 29 41
36 31 33 26 32 37 19 31 25 27 19 21 21 20 8 9 6 18 8 13 7 19 9 18 14 14 9 7 8 2 4 5 7 6 4 16 23 7 14 23 30 28 29
38 39 38 32 28 32 36 30 34 19 23 16 9 15 12 2 3 8 15 8 6 24 14 14 3 10 8 4 4 7 8 14 11 4 16 2 12 6 14 14 37 20 28
43 38 40 35 30 37 31 21 24 28 27 25 17 11 15 13 15 8 6 5 16 13 12 7 10 14 9 8 13 2 16 18 11 13 11 6 10 21 16 6 24 34 23
44 39 35 34 38 32 29 27 30 32 22 29 14 15 12 9 9 14 9 13 9 3 6 9 3 12 16 9 14 18 17 14 39 19 8 21 14 13 15 11 21 30 17
43 34 39 34 34 40 36 27 24 28 22 17 11 14 18 17 12 10 6 8 6 5 2 10 9 8 14 18 5 17 15 25 12 28 19 38 5 17 48 11 21 24 22
44 35 32 28 31 36 38 33 27 29 22 20 19 19 27 21 22 10 10 9 20 8 14 22 14 6 14 22 11 13 19 10 12 32 17 53 34 32 85 12 24 8 25
46 45 40 32 28 36 38 32 31 28 23 24 20 20 16 14 16 20 17 17 18 16 5 17 8 2 5 11 8 16 21 20 10 21 17 46 10 24 58 27 34 14 27
Wind_Direction_850mb
119 113 105 107 101 96 101 109 104 99 94 91 90 94 94 96 96 94 96 98 96 92 93 99 96 93 91 89 92 92 87 85 79 80 86 86 90 90 89 86 87 88 90
121 114 105 106 99 100 102 106 106 104 102 92 96 93 94 95 96 101 100 98 97 95 96 96 93 91 88 89 97 94 89 85 83 76 71 85 88 88 90 94 87 86 85
120 108 107 109 105 101 106 102 105 103 103 101 99 95 93 95 100 100 99 99 97 98 94 92 96 95 91 98 98 90 86 84 83 79 61 76 86 88 85 88 84 87 94
118 113 113 111 111 105 99 101 103 103 100 99 95 97 97 99 99 100 104 103 99 97 93 89 92 94 98 100 100 90 86 83 85 94 94 79 88 86 81 86 89 84 89
124 128 117 114 113 106 99 96 99 99 98 99 101 101 100 101 102 103 106 101 97 97 94 90 86 89 96 100 101 96 91 87 87 96 98 90 87 83 84 88 95 95 91
122 140 122 118 111 107 102 99 99 98 99 102 101 104 105 104 104 104 104 97 96 95 92 89 88 89 92 101 102 95 87 96 104 47 90 90 91 87 89 87 93 92 88
121 127 124 119 116 113 111 105 100 103 98 99 104 107 108 102 97 98 103 98 95 91 87 84 84 85 87 96 112 106 94 89 93 84 73 85 85 83 84 85 83 80 77
122 128 127 127 125 120 115 112 104 102 101 101 102 110 111 106 100 100 101 96 93 88 85 81 80 82 85 91 105 106 98 94 66 35 71 79 84 83 81 78 75 72 69
111 113 109 120 127 126 120 119 114 103 101 101 104 107 115 107 100 102 104 100 92 88 83 79 77 79 83 88 91 89 91 92 82 55 53 81 82 80 77 75 72 67 62
121 121 114 90 97 122 124 122 117 106 99 102 111 107 112 114 106 105 106 98 89 81 83 81 80 81 81 80 81 85 80 82 95 29 75 80 81 78 76 70 63 60 56
127 124 124 108 127 84 126 121 113 110 101 99 113 105 103 96 114 115 114 100 88 85 73 65 66 81 84 78 73 76 78 80 124 31 75 78 77 75 71 67 63 58 52
138 114 137 142 145 119 117 119 108 109 96 93 84 87 98 129 105 119 108 84 78 83 70 55 40 55 82 84 65 74 82 99 31 73 76 76 76 75 73 67 58 50 42
131 133 126 121 97 121 112 112 119 102 129 147 103 106 119 93 104 109 107 55 86 67 87 60 41 59 75 95 73 77 97 97 48 72 72 75 75 71 64 58 52 46 40
132 141 139 132 135 120 142 133 132 143 90 111 122 107 102 112 149 168 97 110 76 90 72 66 72 70 70 93 91 97 100 96 61 68 72 71 69 65 61 54 48 42 37
122 127 134 137 137 136 136 139 130 130 151 151 108 104 124 140 109 145 112 122 112 70 87 94 102 89 93 91 110 90 106 119 76 60 64 66 65 63 60 52 43 37 33
140 133 124 143 141 135 148 140 139 156 135 122 119 154 136 132 129 154 97 83 86 79 79 107 102 113 93 85 93 109 101 107 131 119 49 45 61 60 62 57 46 40 36
146 140 147 142 132 134 140 133 136 138 139 152 155 133 39 146 101 96 88 104 87 53 72 61 88 102 99 96 80 114 85 86 112 109 125 28 36 53 41 43 48 43 42
145 144 155 141 130 119 122 118 131 131 160 148 145 147 205 146 97 7 117 111 101 112 63 74 106 122 132 127 100 110 141 55 83 78 99 72 41 47 20 18 37 43 41
152 153 153 159 147 142 130 149 155 141 152 146 132 165 89 58 30 106 98 129 94 83 142 110 104 114 70 154 119 74 113 249 148 95 106 93 79 64 41 36 35 29 33
152 156 152 165 148 146 128 161 157 136 148 155 168 172 77 82 48 119 136 99 79 98 101 110 104 97 69 54 52 132 82 117 135 261 154 87 111 112 86 35 38 24 20
161 170 160 163 162 160 144 133 144 151 156 168 174 140 147 144 179 154 113 353 26 72 135 144 33 356 59 3 130 197 170 132 167 54 108 21 152 144 63 63 66 47 19
170 179 179 179 169 152 148 168 175 166 169 164 154 203 171 171 156 161 193 116 69 55 36 58 35 54 75 315 314 285 242 207 142 119 66 330 22 122 93 63 46 61 54
180 182 189 183 174 157 166 173 169 167 176 186 204 185 161 193 198 117 145 136 25 227 74 344 311 82 72 359 352 22 49 337 332 143 65 345 14 350 28 296 91 54 38
172 173 187 198 178 163 173 175 180 172 181 177 165 203 191 197 208 231 166 157 107 80 213 285 272 88 47 26 303 352 47 155 232 321 310 334 233 95 358 330 66 40 15
170 174 179 196 180 178 169 179 180 171 176 187 210 194 202 195 204 204 234 212 171 193 234 249 224 115 55 45 235 23 348 37 143 147 281 9 286 319 354 64 123 35 21
169 171 181 199 192 182 185 175 174 190 195 195 198 211 217 223 219 204 228 229 218 244 198 246 229 188 26 95 206 44 26 31 5 3 179 185 140 343 346 14 350 35 65